Location: Waco, TX
(31.5480°N, 97.1670°W)
Time: 13:14:18
(UTC-06:00)

ISS - Pass Details

Date: 09 January 2018
Orbit: 402 x 407 km, 51.6° (Epoch: 20 January)

Event Time Altitude Azimuth Distance (km) Brightness Sun altitude
Rises 08:07:07 0° 329° (NNW) 2,326 -0.5 6.3°
Reaches altitude 10° 08:09:38 10° 348° (NNW) 1,464 -1.4 6.8°
Maximum altitude 08:12:03 19° 36° (NE) 1,042 -1.6 7.2°
Drops below altitude 10° 08:14:29 10° 84° (E) 1,461 0.0 7.6°
Sets 08:16:58 0° 103° (ESE) 2,319 1.6 8.1°
